Hourly Weather Kaprun

Today, 9 August, Sunday

Time Temperature Precipitation Wind Pressure Humidity
00:00 +9°C° 0 mm 1 mps 602 mmHg 90%
01:00 +9°C° 0 mm 1 mps 601 mmHg 90%
02:00 +9°C° 0 mm 1 mps 601 mmHg 90%
03:00 +8°C° 0 mm 1 mps 601 mmHg 89%
04:00 +8°C° 0 mm 1 mps 601 mmHg 89%
05:00 +10°C° 0 mm 1 mps 601 mmHg 86%
06:00 +12°C° 0 mm 1 mps 602 mmHg 82%
07:00 +12°C° 0 mm 0 mps 603 mmHg 78%
08:00 +15°C° 0 mm 1 mps 604 mmHg 69%
09:00 +18°C° 0 mm 1 mps 605 mmHg 60%
10:00 +20°C° 0 mm 1 mps 605 mmHg 50%
11:00 +21°C° 0 mm 1 mps 605 mmHg 46%
12:00 +20°C° 0 mm 2 mps 605 mmHg 43%
13:00 +21°C° 0 mm 2 mps 605 mmHg 39%
14:00 +21°C° 0 mm 2 mps 605 mmHg 41%
15:00 +20°C° 0 mm 2 mps 605 mmHg 43%
16:00 +20°C° 0 mm 2 mps 604 mmHg 46%
17:00 +18°C° 0.1 mm 2 mps 603 mmHg 58%
18:00 +16°C° 0.1 mm 1 mps 603 mmHg 71%
19:00 +14°C° 0.1 mm 1 mps 602 mmHg 83%
20:00 +13°C° 0 mm 1 mps 601 mmHg 86%
21:00 +11°C° 0 mm 1 mps 601 mmHg 88%
22:00 +10°C° 0 mm 1 mps 600 mmHg 90%
23:00 +10°C° 0 mm 1 mps 600 mmHg 90%

Tomorrow, 10 August, Monday

Time Temperature Precipitation Wind Pressure Humidity
00:00 +10°C° 0 mm 1 mps 600 mmHg 89%
01:00 +9°C° 0 mm 1 mps 600 mmHg 89%
02:00 +9°C° 0 mm 1 mps 600 mmHg 89%
03:00 +9°C° 0 mm 1 mps 599 mmHg 88%
04:00 +9°C° 0 mm 1 mps 599 mmHg 88%
05:00 +10°C° 0 mm 1 mps 600 mmHg 84%
06:00 +12°C° 0 mm 1 mps 601 mmHg 80%
07:00 +13°C° 0 mm 0 mps 601 mmHg 76%
08:00 +16°C° 0 mm 1 mps 602 mmHg 67%
09:00 +19°C° 0 mm 1 mps 603 mmHg 58%
10:00 +21°C° 0 mm 1 mps 604 mmHg 49%
11:00 +21°C° 0 mm 1 mps 604 mmHg 46%
12:00 +22°C° 0 mm 1 mps 604 mmHg 43%
13:00 +23°C° 0 mm 2 mps 604 mmHg 40%
14:00 +21°C° 0.4 mm 2 mps 604 mmHg 44%
15:00 +21°C° 0.4 mm 2 mps 603 mmHg 48%
16:00 +20°C° 0.4 mm 2 mps 603 mmHg 52%
17:00 +19°C° 0.5 mm 1 mps 602 mmHg 63%
18:00 +16°C° 0.5 mm 1 mps 601 mmHg 74%
19:00 +13°C° 0.5 mm 0 mps 600 mmHg 85%
20:00 +12°C° 0 mm 0 mps 600 mmHg 86%
21:00 +12°C° 0 mm 1 mps 600 mmHg 87%
22:00 +11°C° 0 mm 1 mps 600 mmHg 88%
23:00 +10°C° 0 mm 1 mps 600 mmHg 88%

Day after tomorrow, 11 August, Tuesday

Time Temperature Precipitation Wind Pressure Humidity
00:00 +10°C° 0 mm 1 mps 600 mmHg 87%
01:00 +10°C° 0 mm 1 mps 599 mmHg 87%
02:00 +10°C° 0 mm 1 mps 599 mmHg 87%
03:00 +9°C° 0 mm 1 mps 599 mmHg 86%
04:00 +9°C° 0 mm 1 mps 599 mmHg 85%
05:00 +11°C° 0 mm 1 mps 600 mmHg 81%
06:00 +12°C° 0 mm 0 mps 601 mmHg 77%
07:00 +14°C° 0 mm 0 mps 601 mmHg 72%
08:00 +15°C° 0 mm 0 mps 602 mmHg 65%
09:00 +19°C° 0 mm 1 mps 603 mmHg 58%
10:00 +21°C° 0 mm 1 mps 604 mmHg 50%
11:00 +21°C° 0.4 mm 1 mps 604 mmHg 49%
12:00 +22°C° 0.4 mm 1 mps 604 mmHg 48%
13:00 +22°C° 0.4 mm 1 mps 604 mmHg 47%
14:00 +21°C° 0.9 mm 1 mps 604 mmHg 53%
15:00 +20°C° 0.9 mm 1 mps 603 mmHg 60%
16:00 +20°C° 0.9 mm 1 mps 603 mmHg 66%
17:00 +18°C° 2.1 mm 1 mps 602 mmHg 75%
18:00 +15°C° 2.1 mm 1 mps 601 mmHg 84%
19:00 +13°C° 2.1 mm 1 mps 601 mmHg 93%
20:00 +12°C° 1.5 mm 1 mps 601 mmHg 92%
21:00 +12°C° 1.5 mm 2 mps 601 mmHg 92%
22:00 +10°C° 1.5 mm 2 mps 600 mmHg 91%
23:00 +11°C° 0 mm 1 mps 600 mmHg 89%

12 August, Wednesday

Time Temperature Precipitation Wind Pressure Humidity
00:00 +11°C° 0 mm 1 mps 600 mmHg 87%
01:00 +10°C° 0 mm 1 mps 600 mmHg 85%
02:00 +10°C° 0 mm 1 mps 599 mmHg 84%
03:00 +10°C° 0 mm 1 mps 599 mmHg 83%
04:00 +9°C° 0 mm 1 mps 599 mmHg 82%
05:00 +11°C° 0 mm 1 mps 600 mmHg 78%
06:00 +12°C° 0 mm 0 mps 600 mmHg 74%
07:00 +13°C° 0 mm 0 mps 601 mmHg 70%
08:00 +15°C° 0 mm 0 mps 602 mmHg 64%
09:00 +19°C° 0 mm 1 mps 603 mmHg 57%
10:00 +21°C° 0 mm 1 mps 603 mmHg 51%
11:00 +21°C° 0.6 mm 1 mps 603 mmHg 52%
12:00 +21°C° 0.6 mm 1 mps 603 mmHg 54%
13:00 +21°C° 0.6 mm 1 mps 603 mmHg 55%
14:00 +21°C° 2 mm 1 mps 603 mmHg 59%
15:00 +20°C° 2 mm 1 mps 603 mmHg 64%
16:00 +19°C° 2 mm 1 mps 602 mmHg 68%
17:00 +18°C° 1.8 mm 1 mps 602 mmHg 75%
18:00 +15°C° 1.8 mm 1 mps 601 mmHg 81%
19:00 +13°C° 1.8 mm 1 mps 600 mmHg 88%
20:00 +12°C° 0.2 mm 1 mps 600 mmHg 87%
21:00 +11°C° 0.2 mm 1 mps 600 mmHg 87%
22:00 +10°C° 0.2 mm 1 mps 599 mmHg 86%
23:00 +10°C° 0 mm 1 mps 599 mmHg 85%

13 August, Thursday

Time Temperature Precipitation Wind Pressure Humidity
00:00 +10°C° 0 mm 1 mps 599 mmHg 83%
01:00 +10°C° 0 mm 1 mps 599 mmHg 82%
02:00 +10°C° 0 mm 1 mps 599 mmHg 82%
03:00 +9°C° 0 mm 1 mps 599 mmHg 81%
04:00 +9°C° 0 mm 1 mps 598 mmHg 81%
05:00 +11°C° 0 mm 1 mps 599 mmHg 77%
06:00 +13°C° 0 mm 1 mps 600 mmHg 74%
07:00 +14°C° 0 mm 0 mps 601 mmHg 70%
08:00 +16°C° 0.1 mm 1 mps 602 mmHg 64%
09:00 +19°C° 0.1 mm 1 mps 603 mmHg 57%
10:00 +21°C° 0.1 mm 1 mps 603 mmHg 51%
11:00 +21°C° 0.6 mm 1 mps 603 mmHg 52%
12:00 +21°C° 0.6 mm 1 mps 603 mmHg 53%
13:00 +21°C° 0.6 mm 1 mps 603 mmHg 54%
14:00 +20°C° 1.5 mm 1 mps 602 mmHg 61%
15:00 +17°C° 1.5 mm 2 mps 601 mmHg 69%
16:00 +16°C° 1.5 mm 2 mps 600 mmHg 76%
17:00 +15°C° 0.9 mm 1 mps 600 mmHg 81%
18:00 +13°C° 0.9 mm 1 mps 600 mmHg 86%
19:00 +12°C° 0.9 mm 1 mps 600 mmHg 91%
20:00 +10°C° 0.2 mm 0 mps 599 mmHg 91%
21:00 +10°C° 0.2 mm 0 mps 599 mmHg 91%
22:00 +9°C° 0.2 mm 0 mps 599 mmHg 91%
23:00 +8°C° 0 mm 0 mps 599 mmHg 91%

14 August, Friday

Time Temperature Precipitation Wind Pressure Humidity
00:00 +8°C° 0 mm 0 mps 599 mmHg 90%
01:00 +8°C° 0 mm 0 mps 599 mmHg 90%
02:00 +7°C° 0 mm 0 mps 598 mmHg 91%
03:00 +7°C° 0 mm 0 mps 598 mmHg 91%
04:00 +6°C° 0 mm 0 mps 598 mmHg 92%
05:00 +8°C° 0 mm 0 mps 599 mmHg 89%
06:00 +9°C° 0 mm 0 mps 599 mmHg 87%
07:00 +11°C° 0 mm 0 mps 600 mmHg 84%
08:00 +12°C° 0.3 mm 0 mps 601 mmHg 79%
09:00 +15°C° 0.3 mm 1 mps 601 mmHg 75%
10:00 +16°C° 0.3 mm 1 mps 602 mmHg 70%
11:00 +18°C° 1.1 mm 1 mps 602 mmHg 71%
12:00 +18°C° 1.1 mm 1 mps 601 mmHg 72%
13:00 +17°C° 1.1 mm 2 mps 601 mmHg 73%
14:00 +18°C° 1.3 mm 1 mps 601 mmHg 75%
15:00 +16°C° 1.3 mm 1 mps 601 mmHg 77%
16:00 +16°C° 1.3 mm 1 mps 600 mmHg 78%
17:00 +15°C° 0.6 mm 1 mps 600 mmHg 82%
18:00 +13°C° 0.6 mm 1 mps 599 mmHg 86%
19:00 +11°C° 0.6 mm 0 mps 599 mmHg 90%
20:00 +10°C° 0.1 mm 0 mps 599 mmHg 90%
21:00 +10°C° 0.1 mm 1 mps 598 mmHg 90%
22:00 +9°C° 0.1 mm 1 mps 598 mmHg 90%
23:00 +9°C° 0 mm 1 mps 598 mmHg 90%
Show more